Kezdőlap
METAR-TAF:

METAR-TAF

Repülőterek :

Shenandoah Municipal Airport

Shenandoah, Iowa, Amerikai Egyesült Államok

földrajzi szélesség: 40-45N, földrajzi hosszúság: 095-25W, magasság: 296 m

Jelenlegi meteorológiai megfigyelések

A jelentés 16 perccel ezelõtt készült, 02:15 UTC
Déli szél 14 kt
Hőmérséklet -2°C
Páratartalom 54%
Légköri nyomás 1019 hPa
Látótávolság: 16.1 km
Derült ég

METAR: KSDA 270215Z AUTO 19014KT 10SM CLR M02/M10 A3009 RMK AO2

Idő: 20:31 (02:31 UTC)


TAF: hiányzik

Meteorológiai megfigyelések és előrejelzések több, mint 4000 repülőtéren (METAR és TAF jelentéseket).

A térképen piros és sárga pontok jelzik az elérhető meteorológiai állomásokat.

Mozgassa az egeret a pont fölött, hogy megjelenjen az állomás neve.

Azután kattintson az időjárási megfigyelések és előrejelzések megtekintéséhez.

A térkép megváltoztatása: kattintson a fekete keresztel jelölt zöld gombra ráközelítéshez, a vonallal jelölt zöld gombra távolításhoz, vagy a zöld nyilakra a szomszédos térképek eléréséhez.


METAR-TAF: